User: anonymous   Login
Location: Armidale
(30.5016°S, 151.6662°E)
Time: 07:44:22
(UTC+10:00)
Language:

N. Korean satellite - Orbit

View from above orbital plane
View from above orbital plane
View from above satellite
View from above satellite

Ground track
Ground track

The orbit data is extracted from the following two-line orbital elements,

1 39026U 12072A   21169.46562082  .00002590  00000-0  89369-4 0  9999
2 39026  97.2440 162.3044 0036326  23.7344 336.5563 15.30242457473188
Epoch (UTC): 18 June 2021 11:10:29
Eccentricity: 0.0036326
inclination: 97.2440°
perigee height: 450 km
apogee height: 500 km
right ascension of ascending node: 162.3044°
argument of perigee: 23.7344°
revolutions per day: 15.30242457
mean anomaly at epoch: 336.5563°
orbit number at epoch: 47318

The dashed part of the orbit path shows where the satellite is in the earth's shadow,  

DLR